2015-01-12 00:03:26 r, 17.52m,0000000008Hz,0000053135c,0000000.115s,-003.0C,00002195
2015-01-12 00:13:26 r, 17.51m,0000000009Hz,0000052883c,0000000.115s,-003.0C,00002195
2015-01-12 00:23:26 r, 17.51m,0000000009Hz,0000052792c,0000000.115s,-003.0C,00002195
2015-01-12 00:33:26 r, 17.51m,0000000009Hz,0000052726c,0000000.114s,-003.0C,00002195
2015-01-12 00:43:26 r, 17.51m,0000000009Hz,0000052664c,0000000.114s,-003.3C,00002195
2015-01-12 00:53:26 r, 17.51m,0000000008Hz,0000052480c,0000000.114s,-003.3C,00002195
2015-01-12 01:03:26 r, 17.51m,0000000009Hz,0000052546c,0000000.114s,-003.3C,00002195
2015-01-12 01:13:26 r, 17.49m,0000000009Hz,0000051932c,0000000.113s,-003.3C,00002195
2015-01-12 01:23:26 r, 17.49m,0000000009Hz,0000051825c,0000000.112s,-003.3C,00002195
2015-01-12 01:33:26 r, 17.49m,0000000009Hz,0000051802c,0000000.112s,-003.3C,00002195
2015-01-12 01:43:26 r, 17.49m,0000000009Hz,0000051683c,0000000.112s,-003.6C,00002195
2015-01-12 01:53:26 r, 17.48m,0000000009Hz,0000051108c,0000000.111s,-003.6C,00002195
2015-01-12 02:03:26 r, 17.49m,0000000009Hz,0000051557c,0000000.112s,-003.6C,00002195
2015-01-12 02:13:26 r, 17.49m,0000000009Hz,0000051509c,0000000.112s,-003.6C,00002195
2015-01-12 02:23:26 r, 17.48m,0000000009Hz,0000050953c,0000000.111s,-003.6C,00002195
2015-01-12 02:33:26 r, 17.48m,0000000009Hz,0000050972c,0000000.111s,-003.9C,00002195
2015-01-12 02:43:26 r, 17.49m,0000000009Hz,0000051402c,0000000.112s,-003.9C,00002195
2015-01-12 02:53:26 r, 17.47m,0000000009Hz,0000050940c,0000000.111s,-003.9C,00002195
2015-01-12 03:03:26 r, 17.48m,0000000009Hz,0000051086c,0000000.111s,-004.2C,00002195
2015-01-12 03:13:26 r, 17.48m,0000000009Hz,0000050986c,0000000.111s,-004.2C,00002195
2015-01-12 03:23:26 r, 17.48m,0000000009Hz,0000051102c,0000000.111s,-004.2C,00002195
2015-01-12 03:33:26 r, 17.49m,0000000009Hz,0000051488c,0000000.112s,-004.6C,00002195
2015-01-12 03:43:26 r, 17.49m,0000000009Hz,0000051589c,0000000.112s,-004.6C,00002195
2015-01-12 03:53:26 r, 17.48m,0000000009Hz,0000051046c,0000000.111s,-004.6C,00002195
2015-01-12 04:03:26 r, 17.47m,0000000009Hz,0000050891c,0000000.110s,-004.6C,00002195
2015-01-12 04:13:26 r, 17.48m,0000000009Hz,0000050958c,0000000.111s,-004.9C,00002195
2015-01-12 04:23:26 r, 17.49m,0000000009Hz,0000051293c,0000000.111s,-004.9C,00002195
2015-01-12 04:33:26 r, 17.47m,0000000009Hz,0000050736c,0000000.110s,-004.9C,00002195
2015-01-12 04:43:26 r, 17.46m,0000000010Hz,0000050318c,0000000.109s,-004.9C,00002195
2015-01-12 04:53:26 r, 17.47m,0000000009Hz,0000050867c,0000000.110s,-004.9C,00002195
2015-01-12 05:03:26 r, 17.47m,0000000009Hz,0000050915c,0000000.110s,-004.9C,00002195
2015-01-12 05:13:26 r, 17.48m,0000000009Hz,0000051003c,0000000.111s,-005.2C,00002195
2015-01-12 05:23:26 r, 17.47m,0000000010Hz,0000050812c,0000000.110s,-005.2C,00002195
2015-01-12 05:33:26 r, 17.44m,0000000009Hz,0000049106c,0000000.107s,-005.2C,00002195
2015-01-12 05:43:26 r, 17.41m,0000000010Hz,0000047638c,0000000.103s,-005.2C,00002195
2015-01-12 05:53:26 r, 17.43m,0000000009Hz,0000048814c,0000000.106s,-005.2C,00002195
2015-01-12 06:03:26 r, 17.42m,0000000010Hz,0000048188c,0000000.105s,-005.5C,00002195
2015-01-12 06:13:26 r, 17.43m,0000000010Hz,0000048880c,0000000.106s,-005.5C,00002195
2015-01-12 06:23:26 r, 17.43m,0000000010Hz,0000048655c,0000000.106s,-005.5C,00002195
2015-01-12 06:33:26 r, 17.41m,0000000009Hz,0000047691c,0000000.103s,-005.9C,00002195
2015-01-12 06:43:26 r, 17.27m,0000000011Hz,0000042393c,0000000.092s,-005.9C,00002195
2015-01-12 06:53:26 r, 17.27m,0000000011Hz,0000042017c,0000000.091s,-005.9C,00002195
2015-01-12 07:03:26 r, 17.11m,0000000012Hz,0000036468c,0000000.079s,-005.9C,00002195
2015-01-12 07:13:26 r, 16.96m,0000000015Hz,0000031727c,0000000.069s,-005.9C,00002195
2015-01-12 07:23:26 r, 16.31m,0000000027Hz,0000017503c,0000000.038s,-005.9C,00002195
2015-01-12 07:33:26 r, 15.08m,0000000081Hz,0000005628c,0000000.012s,-005.9C,00002195
2015-01-12 07:43:26 r, 13.35m,0000000407Hz,0000000000c,0000000.000s,-005.9C,00002195
2015-01-12 07:53:26 r, 11.49m,0000002268Hz,0000000000c,0000000.000s,-005.9C,00002195
2015-01-12 08:03:26 r, 09.76m,0000011093Hz,0000000000c,0000000.000s,-005.9C,00002195
2015-01-12 08:13:26 r, 08.38m,0000039888Hz,0000000000c,0000000.000s,-005.9C,00002195
2015-01-12 08:23:26 r, 07.37m,0000100047Hz,0000000000c,0000000.000s,-006.2C,00002195
2015-01-12 08:33:26 r, 06.68m,0000189424Hz,0000000000c,0000000.000s,-005.9C,00002195
2015-01-12 08:43:26 r, 06.20m,0000296113Hz,0000000000c,0000000.000s,-005.9C,00002195
2015-01-12 08:53:26 r, 00.00m,0000406816Hz,0000000000c,0000000.000s,-005.9C,00002195
2015-01-12 09:03:26 r, 00.00m,0000514848Hz,0000000000c,0000000.000s,-005.9C,00002195
2015-01-12 09:13:26 r, 00.00m,0000559475Hz,0000000000c,0000000.000s,-005.5C,00002195
2015-01-12 09:23:26 r, 00.00m,0000559610Hz,0000000000c,0000000.000s,-005.5C,00002195
2015-01-12 09:33:26 r, 00.00m,0000559715Hz,0000000000c,0000000.000s,-004.2C,00002195
2015-01-12 09:43:26 r, 00.00m,0000559967Hz,0000000000c,0000000.000s,-003.0C,00002195
2015-01-12 09:53:26 r, 00.00m,0000560098Hz,0000000000c,0000000.000s,-001.3C,00002195
2015-01-12 10:03:26 r, 00.00m,0000560518Hz,0000000000c,0000000.000s, 000.3C,00002195
2015-01-12 10:13:26 r, 00.00m,0000560682Hz,0000000000c,0000000.000s, 001.6C,00002195
2015-01-12 10:23:26 r, 00.00m,0000560768Hz,0000000000c,0000000.000s, 002.5C,00002195
2015-01-12 10:33:26 r, 00.00m,0000560975Hz,0000000000c,0000000.000s, 002.9C,00002195
2015-01-12 10:43:26 r, 00.00m,0000561022Hz,0000000000c,0000000.000s, 003.2C,00002195
2015-01-12 10:53:26 r, 00.00m,0000561073Hz,0000000000c,0000000.000s, 003.5C,00002195
2015-01-12 11:03:26 r, 00.00m,0000561148Hz,0000000000c,0000000.000s, 003.5C,00002195
2015-01-12 11:13:26 r, 00.00m,0000561118Hz,0000000000c,0000000.000s, 003.5C,00002195
2015-01-12 11:23:26 r, 00.00m,0000561091Hz,0000000000c,0000000.000s, 003.5C,00002195
2015-01-12 11:33:26 r, 00.00m,0000561204Hz,0000000000c,0000000.000s, 003.8C,00002195
2015-01-12 11:43:26 r, 00.00m,0000561198Hz,0000000000c,0000000.000s, 003.8C,00002195
2015-01-12 11:53:26 r, 00.00m,0000561032Hz,0000000000c,0000000.000s, 003.8C,00002195
2015-01-12 12:03:26 r, 00.00m,0000561104Hz,0000000000c,0000000.000s, 003.8C,00002195
2015-01-12 12:13:26 r, 00.00m,0000561122Hz,0000000000c,0000000.000s, 003.8C,00002195
2015-01-12 12:23:26 r, 00.00m,0000561163Hz,0000000000c,0000000.000s, 003.5C,00002195
2015-01-12 12:33:26 r, 00.00m,0000561137Hz,0000000000c,0000000.000s, 003.8C,00002195
2015-01-12 12:43:26 r, 00.00m,0000561036Hz,0000000000c,0000000.000s, 003.5C,00002195
2015-01-12 12:53:26 r, 00.00m,0000561167Hz,0000000000c,0000000.000s, 003.8C,00002195
2015-01-12 13:03:26 r, 00.00m,0000561113Hz,0000000000c,0000000.000s, 004.1C,00002195
2015-01-12 13:13:26 r, 00.00m,0000561251Hz,0000000000c,0000000.000s, 004.5C,00002195
2015-01-12 13:23:26 r, 00.00m,0000561316Hz,0000000000c,0000000.000s, 004.8C,00002195
2015-01-12 13:33:26 r, 00.00m,0000561156Hz,0000000000c,0000000.000s, 004.8C,00002195
2015-01-12 13:43:26 r, 00.00m,0000561272Hz,0000000000c,0000000.000s, 004.8C,00002195
2015-01-12 13:53:26 r, 00.00m,0000561295Hz,0000000000c,0000000.000s, 004.8C,00002195
2015-01-12 14:03:26 r, 00.00m,0000561213Hz,0000000000c,0000000.000s, 004.8C,00002195
2015-01-12 14:13:26 r, 00.00m,0000561016Hz,0000000000c,0000000.000s, 003.2C,00002195
2015-01-12 14:23:26 r, 00.00m,0000560843Hz,0000000000c,0000000.000s, 002.2C,00002195
2015-01-12 14:33:26 r, 00.00m,0000560648Hz,0000000000c,0000000.000s, 000.6C,00002195
2015-01-12 14:43:26 r, 00.00m,0000560439Hz,0000000000c,0000000.000s, 000.1C,00002195
2015-01-12 14:53:26 r, 00.00m,0000560515Hz,0000000000c,0000000.000s,-000.4C,00002195
2015-01-12 15:03:26 r, 00.00m,0000560384Hz,0000000000c,0000000.000s,-000.7C,00002195
2015-01-12 15:13:26 r, 00.00m,0000560425Hz,0000000000c,0000000.000s,-001.0C,00002195
2015-01-12 15:23:26 r, 00.00m,0000560415Hz,0000000000c,0000000.000s,-001.3C,00002195
2015-01-12 15:33:26 r, 00.00m,0000560275Hz,0000000000c,0000000.000s,-001.3C,00002195
2015-01-12 15:43:26 r, 00.00m,0000560231Hz,0000000000c,0000000.000s,-001.3C,00002195
2015-01-12 15:53:26 r, 00.00m,0000560235Hz,0000000000c,0000000.000s,-001.3C,00002195
2015-01-12 16:03:26 r, 00.00m,0000553885Hz,0000000000c,0000000.000s,-001.7C,00002195
2015-01-12 16:13:26 r, 00.00m,0000458032Hz,0000000000c,0000000.000s,-001.7C,00002195
2015-01-12 16:23:26 r, 06.00m,0000355416Hz,0000000000c,0000000.000s,-002.0C,00002195
2015-01-12 16:33:26 r, 06.37m,0000251891Hz,0000000000c,0000000.000s,-002.0C,00002195
2015-01-12 16:43:26 r, 06.91m,0000153658Hz,0000000000c,0000000.000s,-002.0C,00002195
2015-01-12 16:53:26 r, 07.67m,0000076024Hz,0000000000c,0000000.000s,-002.3C,00002195
2015-01-12 17:03:26 r, 08.77m,0000027556Hz,0000000000c,0000000.000s,-002.6C,00002195
2015-01-12 17:13:26 r, 10.27m,0000006961Hz,0000000000c,0000000.000s,-002.6C,00002195
2015-01-12 17:23:26 r, 12.07m,0000001329Hz,0000000000c,0000000.000s,-002.6C,00002195
2015-01-12 17:33:26 r, 14.00m,0000000223Hz,0000000000c,0000000.000s,-002.6C,00002195
2015-01-12 17:43:26 r, 15.67m,0000000048Hz,0000009702c,0000000.021s,-003.0C,00002195
2015-01-12 17:53:26 r, 16.74m,0000000018Hz,0000025806c,0000000.056s,-003.0C,00002195
2015-01-12 18:03:26 r, 17.25m,0000000012Hz,0000041245c,0000000.090s,-003.0C,00002195
2015-01-12 18:13:26 r, 17.43m,0000000009Hz,0000048752c,0000000.106s,-003.0C,00002195
2015-01-12 18:23:26 r, 17.48m,0000000009Hz,0000050964c,0000000.111s,-003.0C,00002195
2015-01-12 18:33:26 r, 17.51m,0000000009Hz,0000052389c,0000000.114s,-003.0C,00002195
2015-01-12 18:43:26 r, 17.51m,0000000009Hz,0000052673c,0000000.114s,-003.0C,00002195
2015-01-12 18:53:26 r, 17.50m,0000000008Hz,0000052016c,0000000.113s,-003.0C,00002195
2015-01-12 19:03:26 r, 17.51m,0000000009Hz,0000052773c,0000000.115s,-003.0C,00002195
2015-01-12 19:13:26 r, 17.51m,0000000009Hz,0000052543c,0000000.114s,-003.0C,00002195
2015-01-12 19:23:26 r, 17.53m,0000000009Hz,0000053331c,0000000.116s,-003.0C,00002195
2015-01-12 19:33:26 r, 17.51m,0000000009Hz,0000052956c,0000000.115s,-003.0C,00002195
2015-01-12 19:43:26 r, 17.52m,0000000009Hz,0000053060c,0000000.115s,-003.0C,00002195
2015-01-12 19:53:26 r, 17.52m,0000000008Hz,0000053015c,0000000.115s,-002.6C,00002195
2015-01-12 20:03:26 r, 17.53m,0000000009Hz,0000053657c,0000000.116s,-002.6C,00002195
2015-01-12 20:13:26 r, 17.51m,0000000009Hz,0000052961c,0000000.115s,-002.6C,00002195
2015-01-12 20:23:26 r, 17.53m,0000000009Hz,0000053599c,0000000.116s,-002.6C,00002195
2015-01-12 20:33:26 r, 17.51m,0000000008Hz,0000052859c,0000000.115s,-002.6C,00002195
2015-01-12 20:43:26 r, 17.51m,0000000008Hz,0000052884c,0000000.115s,-002.6C,00002195
2015-01-12 20:53:26 r, 17.51m,0000000008Hz,0000052731c,0000000.114s,-002.6C,00002195
2015-01-12 21:03:26 r, 17.51m,0000000009Hz,0000052857c,0000000.115s,-002.6C,00002195
2015-01-12 21:13:26 r, 17.53m,0000000009Hz,0000053505c,0000000.116s,-002.6C,00002195
2015-01-12 21:23:26 r, 17.52m,0000000009Hz,0000053135c,0000000.115s,-002.6C,00002195
2015-01-12 21:33:26 r, 17.53m,0000000009Hz,0000053698c,0000000.117s,-002.6C,00002195
2015-01-12 21:43:26 r, 17.53m,0000000008Hz,0000053706c,0000000.117s,-002.6C,00002195
2015-01-12 21:53:26 r, 17.53m,0000000009Hz,0000053654c,0000000.116s,-002.3C,00002195
2015-01-12 22:03:26 r, 17.54m,0000000009Hz,0000053852c,0000000.117s,-002.3C,00002195
2015-01-12 22:13:26 r, 17.53m,0000000008Hz,0000053712c,0000000.117s,-002.3C,00002195
2015-01-12 22:23:26 r, 17.54m,0000000009Hz,0000053917c,0000000.117s,-002.3C,00002195
2015-01-12 22:33:26 r, 17.55m,0000000009Hz,0000054701c,0000000.119s,-002.3C,00002195
2015-01-12 22:43:26 r, 17.57m,0000000009Hz,0000055299c,0000000.120s,-002.3C,00002195
2015-01-12 22:53:26 r, 17.57m,0000000008Hz,0000055339c,0000000.120s,-002.3C,00002195
2015-01-12 23:03:26 r, 17.57m,0000000008Hz,0000055457c,0000000.120s,-002.3C,00002195
2015-01-12 23:13:26 r, 17.58m,0000000008Hz,0000055810c,0000000.121s,-002.3C,00002195
2015-01-12 23:23:26 r, 17.57m,0000000009Hz,0000055792c,0000000.121s,-002.3C,00002195
2015-01-12 23:33:26 r, 17.59m,0000000008Hz,0000056726c,0000000.123s,-002.3C,00002195
2015-01-12 23:43:26 r, 17.60m,0000000008Hz,0000056876c,0000000.123s,-002.3C,00002195
2015-01-12 23:53:26 r, 17.60m,0000000008Hz,0000057307c,0000000.124s,-002.6C,00002195
